Weather History for Douglas, WY

Change the Weather History Date:

Monday, January 28, 2013

  Actual Average Record
Temperature  
Mean Temperature 28 °F 25 °F  
Max Temperature 37 °F 38 °F 56 °F (2011)
Min Temperature 19 °F 12 °F 0 °F (2014)
Degree Days  
Heating Degree Days 37 40  
Month to date heating degree days 1066 1122  
Since 1 July heating degree days 3787 4211  
Cooling Degree Days 0 0  
Month to date cooling degree days 0 0  
Year to date cooling degree days 0 0  
Moisture  
Dew Point 23 °F    
Average Humidity 73    
Maximum Humidity 92    
Minimum Humidity 54    
Precipitation  
Precipitation 0.01 in 0.01 in 0.17 in (2001)
Month to date precipitation 0.01 0.32  
Year to date precipitation 0.01 0.32  
Sea Level Pressure  
Sea Level Pressure 29.74 in    
Wind  
Wind Speed 7 mph (NW)    
Max Wind Speed 20 mph    
Max Gust Speed 24 mph    
Visibility 5 miles    
Events Fog , Snow    
T = Trace of Precipitation, MM = Missing Value Source: NWS Daily Summary

Daily Weather History Graph

Daily Weather History Graph

Search for Another Location

Airport:

Trip Planner

Search our weather history database for the weather conditions in past years. The results will help you decide how hot, cold, wet, or windy it might be!

Date:

Astronomy

Jan. 28, 2013 Rise Set
Actual Time 7:19 AM MST 5:09 PM MST
Civil Twilight 6:49 AM MST 5:40 PM MST
Nautical Twilight 6:15 AM MST 6:14 PM MST
Astronomical Twilight 5:42 AM MST 6:47 PM MST
Moon 7:11 PM MST (1/28) 7:43 AM MST (1/28)
Length of Visible Light 10h 50m
Length of Day
9h 50m
Full, 97% of the Moon is Illuminated
Jan 28
Full
Feb 3
Last Quarter
Feb 10
New
Feb 17
First Quarter
Feb 25
Full

Hourly Weather History & Observations

Time (MST) Temp. Windchill Dew Point Humidity Pressure Visibility Wind Dir Wind Speed Gust Speed Precip Events Conditions
12:53 AM 34.0 °F - 23.0 °F 64% 29.64 in 10.0 mi Calm Calm - N/A   Scattered Clouds
1:26 AM 28.4 °F 16.6 °F 24.8 °F 86% 29.68 in 8.0 mi NE 16.1 mph - N/A   Mostly Cloudy
1:35 AM 28.4 °F 15.4 °F 26.6 °F 93% 29.68 in 1.8 mi NE 19.6 mph - N/A   Mostly Cloudy
1:53 AM 28.0 °F 18.1 °F 27.0 °F 96% 29.69 in 1.2 mi NNE 11.5 mph - N/A   Overcast
2:07 AM 28.4 °F 18.5 °F 26.6 °F 93% 29.71 in 2.5 mi North 11.5 mph - N/A   Overcast
2:24 AM 28.4 °F 16.6 °F 26.6 °F 93% 29.70 in 4.0 mi North 16.1 mph - 0.00 in Snow Light Snow
2:29 AM 28.4 °F 17.0 °F 26.6 °F 93% 29.70 in 2.0 mi North 15.0 mph - 0.00 in Snow Light Snow
2:36 AM 28.4 °F 17.5 °F 26.6 °F 93% 29.70 in 1.8 mi North 13.8 mph - 0.00 in Snow Light Snow
2:40 AM 28.4 °F 20.4 °F 26.6 °F 93% 29.70 in 2.5 mi North 8.1 mph - 0.00 in Snow Light Snow
2:48 AM 28.4 °F 21.2 °F 26.6 °F 93% 29.70 in 6.0 mi North 6.9 mph - 0.00 in Snow Light Snow
2:53 AM 30.0 °F 25.2 °F 27.0 °F 88% 29.69 in 9.0 mi NE 4.6 mph - 0.00 in   Overcast
3:22 AM 30.2 °F 26.7 °F 26.6 °F 86% 29.70 in 10.0 mi South 3.5 mph - N/A   Overcast
3:53 AM 30.0 °F 24.1 °F 26.1 °F 85% 29.69 in 10.0 mi NNE 5.8 mph - N/A   Overcast
4:13 AM 30.2 °F 25.4 °F 26.6 °F 86% 29.70 in 10.0 mi NE 4.6 mph - N/A   Overcast
4:53 AM 30.0 °F 25.2 °F 27.0 °F 88% 29.74 in 10.0 mi NW 4.6 mph - N/A   Overcast
5:30 AM 28.4 °F 21.2 °F 26.6 °F 93% 29.72 in 1.8 mi NW 6.9 mph - 0.00 in Snow Light Snow
5:41 AM 28.4 °F 22.2 °F 26.6 °F 93% 29.71 in 1.0 mi North 5.8 mph - 0.00 in Snow Light Snow
5:46 AM 28.4 °F 21.2 °F 26.6 °F 93% 29.71 in 1.0 mi North 6.9 mph - 0.00 in Snow Light Snow
5:49 AM 28.4 °F 20.4 °F 26.6 °F 93% 29.71 in 1.2 mi North 8.1 mph - 0.00 in Snow Light Snow
5:53 AM 28.0 °F 20.8 °F 26.1 °F 92% 29.75 in 1.8 mi North 6.9 mph - 0.00 in Snow Light Snow
6:00 AM 28.4 °F 23.3 °F 26.6 °F 93% 29.71 in 2.5 mi NNE 4.6 mph - 0.00 in Snow Light Snow
6:08 AM 28.4 °F 21.2 °F 24.8 °F 86% 29.71 in 3.0 mi NNE 6.9 mph - 0.00 in Snow Light Snow
6:11 AM 28.4 °F 22.2 °F 24.8 °F 86% 29.71 in 2.5 mi NNE 5.8 mph - 0.00 in Snow Light Snow
6:30 AM 28.4 °F - 24.8 °F 86% 29.72 in 5.0 mi Calm Calm - 0.00 in Snow Light Snow
6:51 AM 26.6 °F 21.2 °F 24.8 °F 93% 29.72 in 10.0 mi WNW 4.6 mph - 0.00 in   Overcast
6:53 AM 26.1 °F 20.5 °F 24.1 °F 92% 29.78 in 10.0 mi NW 4.6 mph - 0.00 in   Overcast
7:13 AM 26.6 °F 18.2 °F 24.8 °F 93% 29.74 in 10.0 mi NW 8.1 mph - N/A   Overcast
7:21 AM 26.6 °F 17.5 °F 24.8 °F 93% 29.73 in 10.0 mi NNW 9.2 mph - N/A   Overcast
7:53 AM 28.0 °F 22.8 °F 24.1 °F 85% 29.79 in 9.0 mi North 4.6 mph - 0.00 in Snow Light Snow
8:24 AM 26.6 °F 17.5 °F 23.0 °F 86% 29.73 in 10.0 mi NW 9.2 mph - 0.00 in   Overcast
8:53 AM 27.0 °F 18.7 °F 23.0 °F 85% 29.77 in 8.0 mi NNW 8.1 mph - 0.00 in Snow Light Snow
9:49 AM 26.6 °F 21.2 °F 23.0 °F 86% 29.74 in 10.0 mi NNW 4.6 mph - 0.00 in   Overcast
9:53 AM 28.0 °F 21.7 °F 23.0 °F 81% 29.78 in 10.0 mi NW 5.8 mph - 0.00 in   Overcast
10:49 AM 28.4 °F 22.2 °F 24.8 °F 86% 29.75 in 6.0 mi NNW 5.8 mph - 0.00 in Snow Light Snow
10:53 AM 28.0 °F 20.8 °F 24.1 °F 85% 29.79 in 6.0 mi NNW 6.9 mph - 0.00 in Snow Light Snow
11:11 AM 28.4 °F 21.2 °F 24.8 °F 86% 29.75 in 9.0 mi North 6.9 mph - 0.00 in   Overcast
11:32 AM 28.4 °F 20.4 °F 24.8 °F 86% 29.74 in 1.8 mi NW 8.1 mph - 0.00 in Snow Light Snow
11:53 AM 28.0 °F 20.0 °F 24.1 °F 85% 29.78 in 1.8 mi NW 8.1 mph - 0.00 in Snow Light Snow
12:04 PM 28.4 °F 19.7 °F 24.8 °F 86% 29.73 in 1.5 mi NW 9.2 mph - 0.00 in Snow Light Snow
12:20 PM 28.4 °F 18.5 °F 24.8 °F 86% 29.73 in 1.2 mi NNW 11.5 mph - 0.00 in Snow Light Snow
12:41 PM 28.4 °F 19.7 °F 24.8 °F 86% 29.73 in 2.5 mi NNW 9.2 mph - 0.00 in Snow Light Snow
12:48 PM 28.4 °F 20.4 °F 23.0 °F 80% 29.72 in 4.0 mi NNW 8.1 mph - 0.00 in Snow Light Snow
12:53 PM 28.0 °F 18.6 °F 24.1 °F 85% 29.78 in 4.0 mi NNW 10.4 mph - 0.00 in Snow Light Snow
1:53 PM 28.9 °F 19.2 °F 23.0 °F 78% 29.78 in 10.0 mi NNW 11.5 mph - 0.01 in   Overcast
2:02 PM 28.4 °F 19.1 °F 23.0 °F 80% 29.71 in 10.0 mi NNW 10.4 mph - N/A   Overcast
2:53 PM 30.0 °F 23.2 °F 23.0 °F 75% 29.78 in 10.0 mi NNW 6.9 mph - N/A   Overcast
3:42 PM 30.2 °F 22.6 °F 23.0 °F 75% 29.72 in 10.0 mi NNW 8.1 mph - N/A   Mostly Cloudy
3:53 PM 30.0 °F 21.7 °F 23.0 °F 75% 29.78 in 10.0 mi NNW 9.2 mph - N/A   Mostly Cloudy
4:10 PM 30.2 °F 23.4 °F 23.0 °F 75% 29.71 in 10.0 mi NNW 6.9 mph - N/A   Mostly Cloudy
4:53 PM 28.9 °F 20.4 °F 23.0 °F 78% 29.80 in 6.0 mi NW 9.2 mph - 0.00 in Snow Light Snow
5:50 PM 26.6 °F 22.6 °F 21.2 °F 80% 29.74 in 7.0 mi NW 3.5 mph - 0.00 in Snow Light Snow
5:53 PM 27.0 °F 21.6 °F 23.0 °F 85% 29.82 in 8.0 mi NW 4.6 mph - 0.00 in   Overcast
6:00 PM 26.6 °F 21.2 °F 21.2 °F 80% 29.73 in 10.0 mi NW 4.6 mph - N/A   Overcast
6:09 PM 26.6 °F 21.2 °F 21.2 °F 80% 29.73 in 10.0 mi NW 4.6 mph - N/A   Overcast
6:17 PM 26.6 °F 20.0 °F 23.0 °F 86% 29.74 in 10.0 mi WNW 5.8 mph - N/A   Overcast
6:53 PM 27.0 °F 23.0 °F 21.9 °F 81% 29.85 in 10.0 mi NW 3.5 mph - N/A   Overcast
7:53 PM 26.1 °F 17.6 °F 21.9 °F 84% 29.84 in 10.0 mi NW 8.1 mph - N/A   Overcast
8:29 PM 24.8 °F 16.1 °F 21.2 °F 86% 29.74 in 2.5 mi NW 8.1 mph - 0.00 in Snow Light Snow
8:35 PM 24.8 °F 17.9 °F 21.2 °F 86% 29.74 in 3.0 mi NW 5.8 mph - 0.00 in Snow Light Snow
8:45 PM 24.8 °F 17.9 °F 21.2 °F 86% 29.74 in 1.8 mi NW 5.8 mph - 0.00 in Snow Light Snow
8:53 PM 25.0 °F 17.1 °F 21.0 °F 85% 29.84 in 1.2 mi WNW 6.9 mph - 0.00 in Snow Light Snow
9:05 PM 24.8 °F 19.1 °F 21.2 °F 86% 29.74 in 2.0 mi WNW 4.6 mph - 0.00 in Snow Light Snow
9:13 PM 24.8 °F 17.9 °F 21.2 °F 86% 29.74 in 1.8 mi WNW 5.8 mph - 0.00 in Snow Light Snow
9:21 PM 24.8 °F 19.1 °F 21.2 °F 86% 29.74 in 2.5 mi West 4.6 mph - 0.00 in Snow Light Snow
9:28 PM 24.8 °F 20.5 °F 21.2 °F 86% 29.74 in 3.0 mi West 3.5 mph - 0.00 in Snow Light Snow
9:36 PM 24.8 °F 20.5 °F 21.2 °F 86% 29.74 in 2.0 mi West 3.5 mph - 0.00 in Snow Light Snow
9:48 PM 24.8 °F 17.9 °F 21.2 °F 86% 29.73 in 3.0 mi WNW 5.8 mph - 0.00 in Snow Light Snow
9:49 PM 24.1 °F 17.0 °F 21.9 °F 91% 29.83 in 3.0 mi WNW 5.8 mph - 0.00 in Snow Light Snow
9:53 PM 24.8 °F 17.9 °F 21.2 °F 86% 29.73 in 1.8 mi WNW 5.8 mph - 0.00 in Snow Light Snow
9:57 PM 24.8 °F 16.9 °F 21.2 °F 86% 29.73 in 0.8 mi NW 6.9 mph - 0.00 in Snow Light Snow
10:00 PM 24.8 °F 16.9 °F 21.2 °F 86% 29.73 in 0.5 mi NW 6.9 mph - 0.00 in Fog , Snow Snow
10:08 PM 24.8 °F 17.9 °F 21.2 °F 86% 29.72 in 0.5 mi WNW 5.8 mph - 0.00 in Fog , Snow Snow
10:20 PM 23.0 °F 17.0 °F 21.2 °F 93% 29.73 in 1.2 mi WNW 4.6 mph - 0.00 in Snow Light Snow
10:25 PM 23.0 °F 17.0 °F 21.2 °F 93% 29.72 in 2.0 mi WNW 4.6 mph - 0.00 in Snow Light Snow
10:38 PM 21.2 °F - 19.4 °F 93% 29.72 in 2.0 mi Calm Calm - 0.00 in Snow Light Snow
10:45 PM 23.0 °F 17.0 °F 19.4 °F 86% 29.73 in 1.0 mi West 4.6 mph - 0.00 in Snow Light Snow
10:53 PM 24.1 °F 16.0 °F 21.0 °F 88% 29.83 in 0.8 mi WSW 6.9 mph - 0.00 in Snow Light Snow
10:56 PM 23.0 °F 14.7 °F 19.4 °F 86% 29.72 in 1.2 mi WSW 6.9 mph - 0.00 in Snow Light Snow
11:02 PM 21.2 °F 11.7 °F 19.4 °F 93% 29.72 in 3.0 mi West 8.1 mph - 0.00 in Snow Light Snow
11:14 PM 21.2 °F 10.1 °F 19.4 °F 93% 29.72 in 10.0 mi WSW 10.4 mph - 0.00 in   Overcast
11:53 PM 19.9 °F 6.7 °F 12.9 °F 74% 29.83 in 10.0 mi West 13.8 mph - 0.00 in   Partly Cloudy